Location: Morisset
(33.1080°S, 151.4871°E)
Time: 08:18:47
(UTC+00:00)

Cosmos 1805 - Pass Details

Date: 29 October 2020
Orbit: 523 x 532 km, 82.5° (Epoch: 27 November)

Event Time Altitude Azimuth Distance (km) Brightness Sun altitude
Exits shadow 16:51:11 51° 189° (S) 675 3.8 -24.2°
Drops below altitude 10° 16:54:14 10° 176° (S) 1,798 6.4 -23.7°
Sets 16:56:24 0° 175° (S) 2,698 7.4 -23.4°
